Regional Weather Roundup
Issued by NWS

Home | Current Version | Previous Version | Graphics & Text | Print | Product List | Glossary On
Versions: 1 2 3 4 5 6 7 8 9 10 11 12 13 14 15 16 17 18 19 20 21 22 23 24 25 26 27 28 29 30 31 32 33 34 35 36 37 38 39 40 41 42 43 44 45 46 47 48 49 50
000
ASUS43 KTOP 260808
RWRKS

WEATHER ROUNDUP FOR KANSAS
NATIONAL WEATHER SERVICE GOODLAND KS
300 AM CDT THU MAY 26 2016

NOTE:  "FAIR" INDICATES FEW OR NO CLOUDS BELOW 12,000 FEET WITH NO
SIGNIFICANT WEATHER AND/OR OBSTRUCTIONS TO VISIBILITY.

KSZ001>006-013>018-027>032-041>047-260900-
NORTHWEST KANSAS

CITY           SKY/WX    TMP DP  RH WIND       PRES   REMARKS
GOODLAND       PTCLDY    49  47  93 N6        29.92F
HAYS           CLEAR     52  48  87 E9        29.85F
HILL CITY      CLEAR     53  50  89 E3        29.88F
RUSSELL        CLEAR     61  56  83 E14       29.83F
$$

KSZ061>065-074>080-084>089-260900-
SOUTHWEST KANSAS

CITY           SKY/WX    TMP DP  RH WIND       PRES   REMARKS
DODGE CITY     PTCLDY    66  66 100 E10       29.84F FOG
ELKHART          N/A     63  32  31 SW10        N/A
GARDEN CITY    CLOUDY    67  65  93 E23G32    29.83F
GREAT BEND     CLOUDY    66  59  77 NE10      29.86F
LIBERAL        CLEAR     54  43  66 S10       29.82S
PRATT          CLOUDY    68  65  89 SW3       29.85S
$$

KSZ066>073-081>083-090>101-260900-
SOUTHEAST KANSAS

CITY           SKY/WX    TMP DP  RH WIND       PRES   REMARKS
CHANUTE        CLOUDY    76  72  87 S13       29.84F
COFFEYVILLE    CLOUDY    78  73  84 S8        29.88F
HUTCHINSON     CLOUDY    72  69  90 N9        29.85F
MEDICINE LODGE   N/A     78  72  81 S15G25    29.80F
NEWTON         CLEAR     72  66  83 NW5       29.88S
PARSONS        CLOUDY    77  74  90 S13G21    29.87F
WICHITA INTL   PTCLDY    70  69  97 S6        29.83F FOG
WICHITA JABRA  CLEAR     72  72 100 S7        29.83F
WICHITA MCCONL CLEAR     72  71  96 S7        29.83F
WINFIELD       CLEAR     74  72  93 S9        29.84F FOG
$$

KSZ007>012-019>026-033>040-048>060-102>105-260900-
NORTHEAST KANSAS

CITY           SKY/WX    TMP DP  RH WIND       PRES   REMARKS
CONCORDIA      CLEAR     59  54  83 NE5       29.84F
EMPORIA        CLOUDY    73  71  93 S6        29.83F
LAWRENCE       CLOUDY    70  58  65 VRB5      29.81F
MANHATTAN      MOCLDY    66  61  84 CALM      29.85S
MARYSVILLE     CLEAR     61  57  88 N6        29.82F
OLATHE IND     CLOUDY    66  61  84 SE20G25   29.80F
OLATHE EXE     CLOUDY    64  61  90 SE16      29.82F THUNDER
SALINA         CLEAR     69  64  84 NE6       29.85S
TOPEKA BILLARD LGT RAIN  72  64  76 SW8       29.82F
TOPEKA FORBES  CLOUDY    70  62  76 S8        29.82F
$$




USA.gov is the U.S. government's official web portal to all federal, state and local government web resources and services.